DELTA 1 DEB, 7177

Orbit data source: Space-Track

DELTA 1 DEB, 7177 is space debris in SSO originally from a launch on Tue, 06 Nov 1973 UTC launched from the Air Force Western Test Range (AFWTR). Debris objects in space refer to the collection of defunct objects orbiting the Earth. Examples of debris include non-operational satellites, rocket bodies, and fragments generated from explosions, collisions, or faulty payload assembly.

Loading next visibility...
Identifier
7177, 1973-086EP
Orbit
SSO
Country
Flag of USUS
Related business
Manufacturer
Unknown
Mission
Spacecraft
Bus & Motor
Unknown
Mass
Unknown
Launch date (UTC)
1973-11-06 (53 years ago)
Launch vehicle
Unknown
Launch site
Air Force Western Test Range (AFWTR)
Object type
Payload
Rocket body
Debris
Shape & HBR
Unknown shape, 0.1 m
Radar Cross Section
Medium (>0.1 m² and <1 m²)

Expand to show TLE details & history
Last TLE update: 2 days ago

TLE from 2 days ago
0 DELTA 1 DEB
1 07177U 73086EP  26262.03006152  .00000601  00000-0  14624-2 0  9997
2 07177 102.0366 288.2625 0241575 133.7304 257.6020 13.17166690517342
Epoch: 2026-09-19T00:43Z
TLE epoch observation values (Epoch: 2026-09-19T00:43:17.315Z)
Latitude
28.00396°
Longitude
-86.98211°
Altitude
1,242.244 km
Speed
7.216 km/s
True Right ascension
18h 47m 08s
True Declination
27° 52' 14"
Sunlit
Object was in daylight at epoch
Visualization orbit readout
Latitude
Unknown
Longitude
Unknown
Altitude
Unknown
Speed
Unknown
Apparent Right ascension
Unknown
Apparent Declination
Unknown
Sunlit
N/A
Visualization observer readout
Local Sidereal Time
18:02:43
Azimuth
Unknown
Elevation
Unknown
Doppler factor
Unknown
Orbital elements
Apogee altitude
1,375.937 km
Perigee altitude
1,010.136 km
Semi-major axis
7,571.173 km
Eccentricity
0.02416
Inclination
102.0366°
RAAN
288.2625°
Arg. of periapsis
133.7304°
True anomaly
254.91671°
Mean anomaly
257.602°
Eccentric anomaly
256.2575°
Mean motion
3.29457 °/min
Orbital period
109.27 mins
BSTAR
0.0014624
Loading maneuver chart data...
Computing Atmospheric mass density...
Loading historical data...
Loading historical data...
Loading historical data...
Loading historical data...
Loading historical data...
Loading historical data...
Loading historical data...

Documentation

Showing up to 5 results
|